Location: ActonStarParty
(42.4766°N, 71.4538°W)
Time: 23:16:15
(UTC-04:00)

ATLAS 5 CENTAUR R/B - Visible Passes

Search period start: 29 April 2016 00:00
Search period end: 09 May 2016 00:00
Orbit: 246 x 14752 km, 60.8° (Epoch: 30 March)

Date Brightness Start Highest point End Pass type
(mag) Time Alt. Az. Time Alt. Az. Time Alt. Az.
29 Apr 6.4 20:44:28 10° NW 22:58:48 86° WSW 23:20:30 38° SSE visible
30 Apr 7.5 02:34:27 10° NNW 03:15:35 16° NW 03:40:53 10° W visible
30 Apr 6.8 18:53:37 10° WNW 21:15:59 74° NE 21:51:42 22° ESE visible
01 May 7.0 00:38:05 10° NNW 01:57:29 33° WNW 02:21:55 18° WSW visible
01 May 7.2 17:08:29 10° W 19:12:54 64° N 20:20:13 10° E visible
01 May 6.6 22:45:41 10° NW 00:33:42 54° W 00:52:57 33° SSW visible
02 May 6.4 20:52:34 10° NW 23:02:41 80° WSW 23:23:51 36° SSE visible
03 May 7.7 02:46:31 10° NNW 03:14:01 13° NW 03:34:10 10° WNW visible
03 May 6.7 19:00:22 10° WNW 21:22:15 78° NE 21:54:38 23° SE visible
04 May 7.1 00:45:12 10° NNW 01:56:46 28° WNW 02:24:46 12° WSW visible
04 May 7.1 17:13:12 10° W 19:25:21 66° NNE 20:23:27 10° ESE visible
04 May 6.7 22:52:06 10° NW 00:34:05 49° W 00:55:22 27° SW visible
05 May 6.4 20:58:43 10° NW 23:04:27 74° WSW 23:25:50 33° S visible
06 May 8.0 03:08:41 10° NW 03:10:58 10° NW 03:13:12 10° NW visible
06 May 6.6 19:05:31 10° WNW 21:25:57 83° NE 21:56:11 23° SE visible
07 May 7.3 00:50:40 10° NNW 01:54:26 24° WNW 02:23:39 10° WSW visible
07 May 7.0 17:16:31 10° W 19:33:22 67° NNE 20:24:56 10° ESE visible
07 May 6.8 22:56:33 10° NW 00:32:41 44° W 00:56:24 21° SW visible
08 May 6.5 21:02:54 10° NW 23:04:16 68° WSW 23:26:26 29° S visible
